GW5544 Weather Reports


time (UTC)temp
F
wind
direction
speed
knots
gust
knots
rain 1hr
in
rain 24hr
in
rain mn
in
humidity
%
barometer
mb
20260507105506 45 264 0.0 0.9 0.00 0.47 0.12 95 1007.4
20260507105007 45 264 0.0 0.9 0.00 0.47 0.12 95 1007.6
20260507104503 45 264 0.0 0.9 0.00 0.47 0.12 95 1007.9
20260507104003 44 264 0.0 0.9 0.00 0.47 0.12 94 1007.8
20260507103502 44 264 0.0 0.9 0.00 0.47 0.12 94 1007.6
20260507103007 44 264 0.0 0.9 0.00 0.47 0.12 94 1007.4
20260507102504 44 264 0.0 0.9 0.00 0.47 0.12 94 1008.0
20260507102006 44 260 0.0 0.9 0.00 0.47 0.12 94 1007.2
20260507101508 44 260 0.0 0.9 0.00 0.47 0.12 94 1007.5
20260507101003 44 260 0.0 0.9 0.00 0.47 0.12 94 1007.5
20260507100503 44 260 0.0 0.9 0.00 0.47 0.12 94 1007.5
20260507100025 44 260 0.0 0.9 0.00 0.47 0.12 94 1007.6
20260507095507 44 260 0.0 0.9 0.00 0.47 0.12 94 1007.4
20260507095012 44 260 0.0 0.9 0.00 0.47 0.12 94 1007.0
20260507094517 44 260 0.0 0.9 0.00 0.47 0.12 94 1007.0
20260507094007 44 259 0.0 0.9 0.00 0.47 0.12 94 1006.8
20260507093506 44 260 0.0 0.9 0.00 0.47 0.12 94 1007.2
20260507093003 45 260 0.0 0.9 0.00 0.47 0.12 94 1006.8
20260507092505 45 260 0.0 0.9 0.00 0.47 0.12 94 1006.5
20260507092002 45 260 0.0 0.9 0.00 0.47 0.12 94 1006.6
20260507091514 45 260 0.0 0.9 0.00 0.47 0.12 94 1006.8
20260507091003 45 260 0.0 0.9 0.00 0.47 0.12 94 1006.9
20260507090503 45 260 0.0 0.9 0.00 0.47 0.12 94 1007.2
20260507090008 45 260 0.0 0.9 0.00 0.47 0.12 94 1007.1
20260507085503 46 260 0.0 0.9 0.00 0.47 0.12 94 1007.0
20260507085004 46 260 0.0 0.9 0.00 0.47 0.12 94 1006.9
20260507084514 46 260 0.0 0.9 0.00 0.47 0.12 94 1007.4
20260507084004 46 261 0.0 0.9 0.00 0.47 0.12 94 1007.3
20260507083508 46 262 0.0 0.9 0.00 0.47 0.12 94 1007.1
20260507083021 46 276 0.0 0.9 0.00 0.47 0.12 94 1006.7
20260507082508 46 274 0.0 0.9 0.00 0.47 0.12 94 1006.4
20260507082003 46 274 0.0 0.9 0.00 0.47 0.12 94 1006.6
20260507081504 47 271 0.0 0.9 0.00 0.47 0.12 94 1006.9
20260507081003 47 271 0.0 0.9 0.00 0.47 0.12 94 1007.2
20260507080505 47 335 0.0 0.9 0.00 0.47 0.12 94 1006.7
20260507080008 47 335 0.0 0.9 0.00 0.47 0.12 94 1006.5
20260507075503 47 335 0.0 0.9 0.00 0.47 0.12 94 1006.3
20260507075009 47 335 0.0 0.9 0.00 0.47 0.12 94 1006.3
20260507074512 47 336 0.0 0.9 0.00 0.47 0.12 94 1006.0
20260507074003 48 266 0.0 0.9 0.00 0.47 0.12 94 1006.5
20260507073507 48 348 0.0 0.9 0.00 0.47 0.12 94 1006.3
20260507073014 48 277 0.0 0.9 0.00 0.47 0.12 94 1006.3
20260507072511 48 277 0.0 0.9 0.00 0.47 0.12 94 1006.2
20260507072009 48 277 0.0 0.9 0.00 0.47 0.12 94 1006.2
20260507071520 48 277 0.0 0.9 0.00 0.47 0.12 94 1006.3
20260507071012 48 277 0.0 0.9 0.00 0.47 0.12 94 1006.3
20260507070506 48 277 0.0 0.9 0.00 0.47 0.12 94 1006.0
20260507070008 48 277 0.0 0.9 0.00 0.47 0.12 94 1005.9
20260507065504 49 277 0.0 0.9 0.00 0.47 0.12 94 1006.0
20260507065004 49 277 0.0 0.9 0.00 0.47 0.12 95 1006.1
20260507064512 49 277 0.0 0.9 0.00 0.47 0.12 94 1005.9
20260507064006 49 277 0.0 0.0 0.00 0.47 0.12 94 1005.8
20260507063507 49 277 0.0 0.9 0.00 0.47 0.12 94 1005.8
20260507063012 49 277 0.0 0.9 0.00 0.47 0.12 94 1005.7
20260507062510 49 277 0.0 0.9 0.00 0.47 0.12 94 1005.8
20260507062011 49 277 0.0 0.9 0.01 0.47 0.12 94 1005.5
20260507061529 49 277 0.0 0.9 0.01 0.47 0.12 94 1005.5
20260507061008 50 277 0.0 0.9 0.01 0.47 0.12 95 1005.4
20260507060508 50 277 0.0 0.9 0.01 0.47 0.12 95 1005.5
20260507060029 50 277 0.0 0.9 0.01 0.47 0.12 94 1005.5
20260507055503 50 277 0.0 0.9 0.01 0.47 0.12 95 1005.5
20260507055005 50 277 0.0 0.9 0.01 0.47 0.12 94 1005.6
20260507054505 50 277 0.0 0.9 0.01 0.47 0.12 94 1005.4
20260507054004 50 277 0.0 0.9 0.02 0.47 0.12 94 1005.6
20260507053504 50 277 0.0 0.9 0.02 0.47 0.12 94 1005.7
20260507053011 50 277 0.0 0.9 0.02 0.47 0.12 94 1005.5
20260507052504 50 277 0.0 0.9 0.03 0.47 0.12 94 1005.5
20260507052008 50 277 0.0 0.9 0.04 0.46 0.11 94 1005.5
20260507051519 50 277 0.0 0.9 0.08 0.46 0.11 94 1005.4
20260507051009 51 277 0.0 0.9 0.10 0.46 0.11 94 1005.5
20260507050507 51 314 0.0 0.9 0.11 0.46 0.11 94 1005.4
20260507050030 51 316 0.0 1.7 0.11 0.46 0.11 95 1005.4
20260507045509 51 332 0.0 1.7 0.11 0.46 0.11 95 1005.4
20260507045009 52 219 0.0 1.7 0.11 0.46 0.11 95 1005.5
20260507044538 52 309 0.0 1.7 0.11 0.46 0.11 95 1005.4
20260507044004 52 319 0.9 1.7 0.10 0.45 0.10 95 1005.3
20260507043504 52 354 0.0 0.9 0.10 0.45 0.10 95 1005.3
20260507043009 52 316 0.0 1.7 0.10 0.45 0.10 95 1005.4
20260507042507 52 316 0.0 2.6 0.09 0.44 0.09 95 1005.3
20260507042006 52 11 0.0 2.6 0.08 0.42 0.07 95 1005.4
20260507041515 52 309 0.9 1.7 0.04 0.38 0.03 95 1005.7
20260507041008 52 253 0.9 0.9 0.02 0.36 0.01 95 1005.5
20260507040511 51 345 0.0 0.9 0.01 0.35 0.00 95 1005.2
20260507040019 51 345 0.0 1.7 0.01 0.35 0.00 95 1005.2
20260507035508 51 345 0.0 1.7 0.01 0.35 0.35 95 1005.1
20260507035009 51 201 0.0 0.0 0.01 0.35 0.35 95 1004.6
20260507034522 51 202 0.0 0.0 0.01 0.35 0.35 95 1004.5
20260507034008 51 202 0.0 0.0 0.01 0.35 0.35 95 1004.6
20260507033508 51 200 0.0 0.0 0.01 0.35 0.35 95 1004.5
20260507033009 51 200 0.0 0.0 0.01 0.35 0.35 95 1004.3
20260507032505 51 202 0.0 0.0 0.02 0.35 0.35 95 1004.4
20260507032006 51 201 0.0 0.0 0.01 0.34 0.34 95 1004.5
20260507031509 51 201 0.0 0.0 0.01 0.34 0.34 95 1004.5
20260507031011 51 201 0.0 0.9 0.01 0.34 0.34 95 1004.5
20260507030508 51 202 0.0 0.9 0.01 0.34 0.34 95 1004.5
20260507030014 51 202 0.0 0.9 0.01 0.34 0.34 95 1004.6
20260507025508 51 197 0.0 0.9 0.01 0.34 0.34 95 1004.5
20260507025006 51 197 0.0 0.9 0.01 0.34 0.34 95 1004.6
20260507024518 51 245 0.0 0.9 0.01 0.34 0.34 95 1004.6
20260507024011 51 245 0.0 0.9 0.01 0.34 0.34 95 1004.7
20260507023502 51 252 0.0 0.9 0.01 0.34 0.34 95 1004.9
20260507023003 51 170 0.0 1.7 0.02 0.34 0.34 95 1004.9
20260507022503 51 170 0.0 1.7 0.01 0.33 0.33 95 1004.9
20260507022006 51 224 0.9 1.7 0.01 0.33 0.33 94 1004.9
20260507021508 51 153 0.0 0.9 0.01 0.33 0.33 94 1004.9
20260507021012 51 186 0.0 1.7 0.01 0.33 0.33 94 1005.0
20260507020507 51 153 0.0 1.7 0.02 0.33 0.33 94 1005.0
20260507020003 51 216 0.9 2.6 0.02 0.33 0.33 94 1005.0
20260507015502 51 196 0.9 2.6 0.02 0.33 0.33 94 1005.0
20260507015002 51 160 0.9 4.3 0.02 0.33 0.33 94 1005.1
20260507014503 51 153 0.9 5.2 0.02 0.33 0.33 94 1005.2
20260507014002 51 131 1.7 5.2 0.02 0.33 0.33 94 1005.3
20260507013502 51 160 0.9 3.5 0.02 0.33 0.33 94 1005.3
20260507013003 51 214 1.7 3.5 0.02 0.32 0.32 94 1005.4
20260507012506 51 169 0.9 3.5 0.02 0.32 0.32 94 1005.4
20260507012003 51 229 0.9 3.5 0.02 0.32 0.32 94 1005.4
20260507011507 51 193 0.9 2.6 0.02 0.32 0.32 94 1005.4
20260507011004 51 167 0.9 2.6 0.02 0.32 0.32 94 1005.6
20260507010503 51 150 0.9 2.6 0.01 0.31 0.31 94 1005.5
20260507010012 51 252 1.7 2.6 0.01 0.31 0.31 94 1005.5
20260507005508 51 150 0.9 2.6 0.01 0.31 0.31 94 1005.6
20260507005005 51 227 1.7 4.3 0.01 0.31 0.31 94 1005.6
20260507004502 51 212 0.9 4.3 0.01 0.31 0.31 94 1005.7
20260507004003 51 150 0.9 1.7 0.01 0.31 0.31 94 1005.8
20260507003503 51 158 0.9 2.6 0.01 0.31 0.31 94 1005.8
20260507003004 51 143 0.9 2.6 0.00 0.30 0.30 94 1005.8
20260507002503 51 158 0.9 2.6 0.00 0.30 0.30 94 1005.9
20260507002003 51 127 0.9 2.6 0.00 0.30 0.30 94 1005.9
20260507001510 51 128 0.9 1.7 0.00 0.30 0.30 94 1005.9
20260507001003 51 232 0.9 1.7 0.00 0.30 0.30 94 1006.0
20260507000506 51 165 0.0 1.7 0.00 0.30 0.30 94 1006.0
20260507000008 51 221 0.9 1.7 0.00 0.30 0.30 94 1005.9
20260506235507 51 149 0.0 2.6 0.00 0.30 0.30 94 1005.9
20260506235008 51 143 0.9 2.6 0.00 0.30 0.30 94 1005.8
20260506234515 51 160 0.9 1.7 0.00 0.30 0.30 94 1005.8
20260506234008 51 103 0.9 2.6 0.00 0.30 0.30 93 1005.7
20260506233503 51 158 0.9 2.6 0.00 0.30 0.30 94 1005.8
20260506233004 51 229 0.9 5.2 0.00 0.30 0.30 93 1005.9
20260506232502 51 181 0.0 5.2 0.01 0.30 0.30 93 1005.9
20260506232003 51 276 0.9 3.5 0.01 0.30 0.30 93 1005.8
20260506231504 51 259 1.7 4.3 0.02 0.30 0.30 93 1005.9
20260506231003 51 227 0.9 4.3 0.02 0.30 0.30 93 1005.9
20260506230503 52 285 0.9 2.6 0.03 0.30 0.30 93 1005.8
20260506230007 52 252 0.9 1.7 0.03 0.30 0.30 93 1005.9
20260506225505 52 27 0.0 2.6 0.03 0.30 0.30 93 1006.0
20260506225003 52 250 0.9 2.6 0.03 0.30 0.30 93 1006.1
20260506224509 52 153 0.9 1.7 0.03 0.30 0.30 93 1006.1
20260506224007 52 175 0.0 2.6 0.03 0.30 0.30 93 1006.0
20260506223507 52 216 0.9 2.6 0.03 0.30 0.30 93 1006.2
20260506223014 52 209 0.0 2.6 0.04 0.30 0.30 93 1006.2
20260506222510 52 143 0.9 2.6 0.03 0.29 0.29 93 1006.3
20260506222003 52 264 0.9 2.6 0.03 0.29 0.29 93 1006.4
20260506221505 52 91 0.9 3.5 0.03 0.28 0.28 93 1006.4
20260506221003 53 189 0.9 3.5 0.05 0.28 0.28 93 1006.5
20260506220503 53 152 0.9 2.6 0.05 0.27 0.27 93 1006.5
20260506220004 53 149 1.7 2.6 0.05 0.27 0.27 93 1006.6
20260506215503 53 212 0.9 2.6 0.06 0.27 0.27 93 1006.6
20260506215003 52 255 0.9 2.6 0.07 0.27 0.27 93 1006.6
20260506214509 52 282 0.9 2.6 0.08 0.27 0.27 93 1006.5
20260506214003 52 199 0.9 2.6 0.09 0.27 0.27 92 1006.6
20260506213506 52 169 0.9 3.5 0.09 0.27 0.27 92 1006.6
20260506213017 52 188 1.7 3.5 0.08 0.26 0.26 92 1006.7
20260506212508 52 210 0.9 2.6 0.09 0.26 0.26 92 1006.7
20260506212010 52 255 0.9 2.6 0.09 0.26 0.26 92 1006.8
20260506211519 52 164 0.9 2.6 0.08 0.25 0.25 92 1006.9
20260506211007 53 232 0.9 2.6 0.06 0.23 0.23 91 1007.1
20260506210504 53 212 0.9 2.6 0.05 0.22 0.22 91 1007.0
20260506210005 53 214 0.9 1.7 0.06 0.22 0.22 91 1007.0
20260506205503 53 214 0.9 2.6 0.06 0.21 0.21 91 1007.0
20260506205003 53 183 0.9 2.6 0.06 0.20 0.20 92 1006.9
20260506204508 53 194 0.9 2.6 0.07 0.19 0.19 91 1006.9
20260506204007 53 121 0.9 2.6 0.06 0.18 0.18 92 1006.9
20260506203503 53 124 0.9 2.6 0.08 0.18 0.18 92 1006.9
20260506203011 53 159 0.9 2.6 0.09 0.18 0.18 92 1006.8
20260506202509 53 238 0.9 1.7 0.08 0.17 0.17 92 1006.8
20260506202007 53 128 0.0 1.7 0.09 0.17 0.17 92 1006.8
20260506201514 53 190 0.9 1.7 0.10 0.17 0.17 92 1007.2
20260506201008 53 238 0.9 1.7 0.11 0.17 0.17 92 1006.9
20260506200507 53 162 0.9 2.6 0.12 0.17 0.17 92 1006.9
20260506200026 53 160 0.9 2.6 0.12 0.16 0.16 91 1007.2
20260506195504 53 169 0.9 1.7 0.12 0.15 0.15 91 1007.2
20260506195005 53 104 0.9 1.7 0.12 0.14 0.14 91 1007.4
20260506194506 53 221 0.9 0.9 0.11 0.12 0.12 91 1007.6
20260506194003 53 174 0.0 1.7 0.12 0.12 0.12 91 1007.5
20260506193503 53 158 0.9 1.7 0.10 0.10 0.10 91 1007.3
20260506193008 53 148 0.9 1.7 0.09 0.09 0.09 91 1007.2
20260506192508 53 141 0.9 1.7 0.09 0.09 0.09 90 1007.4
20260506192009 53 244 0.0 1.7 0.08 0.08 0.08 90 1007.6
20260506191514 53 140 0.9 1.7 0.07 0.07 0.07 90 1007.6
20260506191006 53 113 0.9 1.7 0.06 0.06 0.06 90 1007.6
20260506190508 53 238 0.9 1.7 0.05 0.05 0.05 89 1007.6
20260506190020 53 191 0.0 2.6 0.04 0.04 0.04 89 1007.5
20260506185507 53 206 0.9 3.5 0.03 0.03 0.03 88 1007.5
20260506185007 53 135 0.9 3.5 0.02 0.02 0.02 87 1007.5
20260506184520 54 173 0.9 2.6 0.01 0.01 0.01 86 1007.6
20260506184004 54 239 0.9 2.6 0.00 0.00 0.00 85 1007.5
20260506183504 54 150 0.9 2.6 0.00 0.00 0.00 83 1007.6
20260506183008 54 252 0.9 3.5 0.00 0.00 0.00 83 1007.6
20260506182504 54 253 0.9 3.5 0.00 0.00 0.00 83 1007.6
20260506182011 54 184 0.9 1.7 0.00 0.00 0.00 83 1007.5
20260506181510 55 223 0.0 3.5 0.00 0.00 0.00 82 1007.6
20260506181005 55 222 0.0 3.5 0.00 0.00 0.00 82 1007.7
20260506180505 55 191 0.9 2.6 0.00 0.00 0.00 82 1007.6
20260506180018 55 135 0.9 2.6 0.00 0.00 0.00 82 1007.6
20260506175510 55 211 0.9 2.6 0.00 0.00 0.00 82 1007.6
20260506175008 55 207 1.7 2.6 0.00 0.00 0.00 81 1007.7
20260506174519 55 174 0.9 2.6 0.00 0.00 0.00 81 1007.8
20260506174012 55 116 0.9 3.5 0.00 0.00 0.00 81 1007.7
20260506173503 56 159 0.9 3.5 0.00 0.00 0.00 81 1007.8
20260506173007 56 119 1.7 3.5 0.00 0.00 0.00 80 1007.9
20260506172504 56 146 0.9 2.6 0.00 0.00 0.00 80 1008.0
20260506172005 57 133 0.9 2.6 0.00 0.00 0.00 80 1008.1
20260506171504 57 131 0.9 2.6 0.00 0.00 0.00 79 1008.1
20260506171004 57 124 0.9 2.6 0.00 0.00 0.00 79 1008.3
20260506170504 58 155 0.9 2.6 0.00 0.00 0.00 79 1008.4
20260506170004 58 111 1.7 2.6 0.00 0.00 0.00 79 1008.4
20260506165504 58 131 0.9 2.6 0.00 0.00 0.00 79 1008.5
20260506165005 58 238 0.9 4.3 0.00 0.00 0.00 79 1008.6
20260506164507 58 200 0.9 4.3 0.00 0.00 0.00 80 1008.7
20260506164007 58 259 0.9 5.2 0.00 0.00 0.00 80 1008.7
20260506163508 58 228 2.6 5.2 0.00 0.00 0.00 79 1008.8
20260506163006 58 278 1.7 3.5 0.00 0.00 0.00 79 1008.9
20260506162504 58 231 0.9 3.5 0.00 0.00 0.00 80 1009.1
20260506162004 58 238 0.9 3.5 0.00 0.00 0.00 80 1009.3
20260506161507 58 139 1.7 3.5 0.00 0.00 0.00 80 1009.3
20260506161004 57 230 1.7 4.3 0.00 0.00 0.00 80 1009.4
20260506160504 57 169 1.7 4.3 0.00 0.00 0.00 80 1009.4
20260506160012 58 112 1.7 3.5 0.00 0.00 0.00 80 1009.5
20260506155505 58 214 0.9 3.5 0.00 0.00 0.00 80 1009.6
20260506155005 58 124 1.7 3.5 0.00 0.00 0.00 80 1009.6
20260506154504 58 75 1.7 3.5 0.00 0.00 0.00 81 1009.6
20260506154007 57 212 1.7 3.5 0.00 0.00 0.00 80 1009.6
20260506153507 57 216 0.9 3.5 0.00 0.00 0.00 81 1009.7
20260506153004 57 214 0.9 3.5 0.00 0.00 0.00 81 1009.7
20260506152502 57 158 0.9 3.5 0.00 0.00 0.00 81 1009.8
20260506152004 57 250 0.9 3.5 0.00 0.00 0.00 81 1009.7
20260506151506 58 166 1.7 3.5 0.00 0.00 0.00 80 1009.5
20260506151003 58 167 1.7 2.6 0.00 0.00 0.00 80 1009.7
20260506150503 58 155 0.9 3.5 0.00 0.00 0.00 80 1009.6
20260506150006 58 127 1.7 3.5 0.00 0.00 0.00 80 1009.6
20260506145504 58 180 1.7 4.3 0.00 0.00 0.00 81 1009.5
20260506145005 57 129 0.9 4.3 0.00 0.00 0.00 80 1009.4
20260506144509 57 131 1.7 3.5 0.00 0.00 0.00 80 1009.3
20260506144006 57 135 0.9 5.2 0.00 0.00 0.00 81 1009.3
20260506143505 57 239 1.7 5.2 0.00 0.00 0.00 80 1009.2
20260506143015 57 216 0.9 3.5 0.00 0.00 0.00 81 1009.2
20260506142506 57 131 0.9 3.5 0.00 0.00 0.00 81 1009.3
20260506142004 57 242 0.9 2.6 0.00 0.00 0.00 80 1009.4
20260506141505 57 206 0.9 2.6 0.00 0.00 0.00 81 1009.6
20260506141005 57 70 1.7 2.6 0.00 0.00 0.00 81 1009.8
20260506140507 57 102 0.9 2.6 0.00 0.00 0.00 81 1010.0
20260506140008 57 258 0.9 2.6 0.00 0.00 0.00 81 1010.0
20260506135504 57 167 0.9 2.6 0.00 0.00 0.00 81 1010.0
20260506135004 57 167 0.9 3.5 0.00 0.00 0.00 81 1009.8
20260506134507 57 175 0.9 3.5 0.00 0.00 0.00 82 1009.8
20260506134004 57 92 0.9 2.6 0.00 0.00 0.00 81 1009.8
20260506133506 57 240 0.0 2.6 0.00 0.00 0.00 81 1009.8
20260506133009 57 198 0.9 2.6 0.00 0.00 0.00 81 1009.8
20260506132506 57 205 0.9 2.6 0.00 0.00 0.00 80 1009.7
20260506132006 57 259 0.9 2.6 0.00 0.00 0.00 80 1009.7
20260506131508 57 130 1.7 2.6 0.00 0.00 0.00 80 1009.7
20260506131003 57 106 0.9 3.5 0.00 0.00 0.00 81 1009.7
20260506130506 57 101 0.9 3.5 0.00 0.00 0.00 80 1009.6
20260506130006 57 122 0.9 2.6 0.00 0.00 0.00 80 1009.6
20260506125504 58 191 0.9 2.6 0.00 0.00 0.00 80 1009.5
20260506125004 57 117 0.9 1.7 0.00 0.00 0.00 80 1009.6
20260506124508 57 262 0.9 2.6 0.00 0.00 0.00 81 1009.5
20260506124007 56 169 0.0 2.6 0.00 0.00 0.00 81 1009.6
20260506123505 56 128 0.9 2.6 0.00 0.00 0.00 81 1009.9
20260506123010 56 126 0.9 2.6 0.00 0.00 0.00 81 1009.8
20260506122507 56 249 0.0 1.7 0.00 0.00 0.00 82 1009.8
20260506122005 55 257 0.9 1.7 0.00 0.00 0.00 82 1009.9
20260506121508 55 108 0.9 1.7 0.00 0.00 0.00 82 1009.8
20260506121007 55 136 0.9 1.7 0.00 0.00 0.00 82 1010.0
20260506120509 55 122 0.9 1.7 0.00 0.00 0.00 82 1009.9
20260506120011 55 124 0.0 0.9 0.00 0.00 0.00 82 1010.0
20260506115504 55 123 0.0 0.9 0.00 0.00 0.00 83 1010.0
20260506115004 55 122 0.0 0.9 0.00 0.00 0.00 83 1009.9
20260506114508 54 123 0.0 0.9 0.00 0.00 0.00 84 1010.0
20260506114006 54 119 0.9 0.9 0.00 0.00 0.00 84 1010.0
20260506113507 54 118 0.0 0.9 0.00 0.00 0.00 84 1010.3
20260506113015 53 117 0.0 0.9 0.00 0.00 0.00 84 1010.0
20260506112505 53 117 0.0 0.9 0.00 0.00 0.00 84 1010.1
20260506112005 53 118 0.0 0.9 0.00 0.00 0.00 85 1010.2
20260506111512 53 118 0.0 0.9 0.00 0.00 0.00 85 1010.3
20260506111006 52 116 0.0 0.9 0.00 0.00 0.00 86 1010.2
20260506110505 52 117 0.0 0.9 0.00 0.00 0.00 85 1010.2
20260506110012 52 117 0.0 0.9 0.00 0.00 0.00 85 1010.3